Year,Month,Day,Hour,Minute,Value (Times are PST for temperature in C)
2016,03,17,00,00,3.70
2016,03,17,00,01,3.60
2016,03,17,00,02,3.60
2016,03,17,00,03,3.50
2016,03,17,00,04,3.50
2016,03,17,00,05,3.50
2016,03,17,00,06,3.40
2016,03,17,00,07,3.40
2016,03,17,00,08,3.40
2016,03,17,00,09,3.40
2016,03,17,00,10,3.40
2016,03,17,00,11,3.40
2016,03,17,00,12,3.40
2016,03,17,00,13,3.40
2016,03,17,00,14,3.40
2016,03,17,00,15,3.50
2016,03,17,00,16,3.50
2016,03,17,00,17,3.50
2016,03,17,00,18,3.50
2016,03,17,00,19,3.50
2016,03,17,00,20,3.50
2016,03,17,00,21,3.60
2016,03,17,00,22,3.60
2016,03,17,00,23,3.60
2016,03,17,00,24,3.70
2016,03,17,00,25,3.60
2016,03,17,00,26,3.60
2016,03,17,00,27,3.60
2016,03,17,00,28,3.50
2016,03,17,00,29,3.40
2016,03,17,00,30,3.40
2016,03,17,00,31,3.30
2016,03,17,00,32,3.30
2016,03,17,00,33,3.30
2016,03,17,00,34,3.30
2016,03,17,00,35,3.30
2016,03,17,00,36,3.30
2016,03,17,00,37,3.30
2016,03,17,00,38,3.30
2016,03,17,00,39,3.30
2016,03,17,00,40,3.30
2016,03,17,00,41,3.30
2016,03,17,00,42,3.30
2016,03,17,00,43,3.30
2016,03,17,00,44,3.30
2016,03,17,00,45,3.30
2016,03,17,00,46,3.30
2016,03,17,00,47,3.30
2016,03,17,00,48,3.30
2016,03,17,00,49,3.30
2016,03,17,00,50,3.20
2016,03,17,00,51,3.20
2016,03,17,00,52,3.20
2016,03,17,00,53,3.20
2016,03,17,00,54,3.20
2016,03,17,00,55,3.20
2016,03,17,00,56,3.20
2016,03,17,00,57,3.20
2016,03,17,00,58,3.20
2016,03,17,00,59,3.20
2016,03,17,01,00,3.10
2016,03,17,01,01,3.10
2016,03,17,01,02,3.00
2016,03,17,01,03,3.00
2016,03,17,01,04,2.90
2016,03,17,01,05,2.90
2016,03,17,01,06,3.00
2016,03,17,01,07,2.90
2016,03,17,01,08,3.00
2016,03,17,01,09,3.00
2016,03,17,01,10,3.00
2016,03,17,01,11,2.90
2016,03,17,01,12,2.90
2016,03,17,01,13,3.00
2016,03,17,01,14,3.00
2016,03,17,01,15,3.00
2016,03,17,01,16,3.00
2016,03,17,01,17,2.90
2016,03,17,01,18,2.90
2016,03,17,01,19,2.90
2016,03,17,01,20,2.90
2016,03,17,01,21,2.90
2016,03,17,01,22,2.90
2016,03,17,01,23,2.90
2016,03,17,01,24,2.90
2016,03,17,01,25,2.80
2016,03,17,01,26,2.80
2016,03,17,01,27,2.80
2016,03,17,01,28,2.80
2016,03,17,01,29,2.80
2016,03,17,01,30,2.80
2016,03,17,01,31,2.80
2016,03,17,01,32,2.90
2016,03,17,01,33,2.90
2016,03,17,01,34,2.90
2016,03,17,01,35,2.90
2016,03,17,01,36,2.90
2016,03,17,01,37,2.90
2016,03,17,01,38,2.90
2016,03,17,01,39,2.90
2016,03,17,01,40,2.90
2016,03,17,01,41,2.90
2016,03,17,01,42,2.90
2016,03,17,01,43,2.90
2016,03,17,01,44,2.90
2016,03,17,01,45,2.90
2016,03,17,01,46,2.90
2016,03,17,01,47,2.90
2016,03,17,01,48,2.90
2016,03,17,01,49,2.90
2016,03,17,01,50,2.90
2016,03,17,01,51,2.90
2016,03,17,01,52,2.90
2016,03,17,01,53,2.90
2016,03,17,01,54,2.90
2016,03,17,01,55,2.90
2016,03,17,01,56,2.90
2016,03,17,01,57,2.90
2016,03,17,01,58,2.90
2016,03,17,01,59,2.90
2016,03,17,02,00,2.90
2016,03,17,02,01,2.90
2016,03,17,02,02,2.90
2016,03,17,02,03,3.00
2016,03,17,02,04,3.00
2016,03,17,02,05,3.10
2016,03,17,02,06,3.10
2016,03,17,02,07,3.10
2016,03,17,02,08,3.10
2016,03,17,02,09,3.10
2016,03,17,02,10,3.10
2016,03,17,02,11,3.20
2016,03,17,02,12,3.10
2016,03,17,02,13,3.10
2016,03,17,02,14,3.10
2016,03,17,02,15,3.20
2016,03,17,02,16,3.20
2016,03,17,02,17,3.20
2016,03,17,02,18,3.20
2016,03,17,02,19,3.30
2016,03,17,02,20,3.40
2016,03,17,02,21,3.50
2016,03,17,02,22,3.60
2016,03,17,02,23,3.70
2016,03,17,02,24,3.70
2016,03,17,02,25,3.70
2016,03,17,02,26,3.80
2016,03,17,02,27,3.80
2016,03,17,02,28,3.90
2016,03,17,02,29,3.90
2016,03,17,02,30,4.00
2016,03,17,02,31,4.10
2016,03,17,02,32,4.20
2016,03,17,02,33,4.20
2016,03,17,02,34,4.20
2016,03,17,02,35,4.30
2016,03,17,02,36,4.30
2016,03,17,02,37,4.30
2016,03,17,02,38,4.40
2016,03,17,02,39,4.40
2016,03,17,02,40,4.50
2016,03,17,02,41,4.50
2016,03,17,02,42,4.50
2016,03,17,02,43,4.40
2016,03,17,02,44,4.40
2016,03,17,02,45,4.40
2016,03,17,02,46,4.40
2016,03,17,02,47,4.40
2016,03,17,02,48,4.40
2016,03,17,02,49,4.30
2016,03,17,02,50,4.30
2016,03,17,02,51,4.30
2016,03,17,02,52,4.20
2016,03,17,02,53,4.20
2016,03,17,02,54,4.20
2016,03,17,02,55,4.20
2016,03,17,02,56,4.20
2016,03,17,02,57,4.20
2016,03,17,02,58,4.20
2016,03,17,02,59,4.20
2016,03,17,03,00,4.20
2016,03,17,03,01,4.20
2016,03,17,03,02,4.20
2016,03,17,03,03,4.20
2016,03,17,03,04,4.20
2016,03,17,03,05,4.20
2016,03,17,03,06,4.20
2016,03,17,03,07,4.20
2016,03,17,03,08,4.20
2016,03,17,03,09,4.20
2016,03,17,03,10,4.20
2016,03,17,03,11,4.20
2016,03,17,03,12,4.20
2016,03,17,03,13,4.20
2016,03,17,03,14,4.30
2016,03,17,03,15,4.40
2016,03,17,03,16,4.40
2016,03,17,03,17,4.40
2016,03,17,03,18,4.50
2016,03,17,03,19,4.50
2016,03,17,03,20,4.60
2016,03,17,03,21,4.60
2016,03,17,03,22,4.60
2016,03,17,03,23,4.60
2016,03,17,03,24,4.70
2016,03,17,03,25,4.70
2016,03,17,03,26,4.70
2016,03,17,03,27,4.70
2016,03,17,03,28,4.70
2016,03,17,03,29,4.80
2016,03,17,03,30,4.80
2016,03,17,03,31,4.80
2016,03,17,03,32,4.80
2016,03,17,03,33,4.80
2016,03,17,03,34,4.80
2016,03,17,03,35,4.80
2016,03,17,03,36,4.80
2016,03,17,03,37,4.80
2016,03,17,03,38,4.80
2016,03,17,03,39,4.80
2016,03,17,03,40,4.80
2016,03,17,03,41,4.80
2016,03,17,03,42,4.80
2016,03,17,03,43,4.80
2016,03,17,03,44,4.80
2016,03,17,03,45,4.80
2016,03,17,03,46,4.70
2016,03,17,03,47,4.70
2016,03,17,03,48,4.70
2016,03,17,03,49,4.70
2016,03,17,03,50,4.70
2016,03,17,03,51,4.70
2016,03,17,03,52,4.70
2016,03,17,03,53,4.70
2016,03,17,03,54,4.70
2016,03,17,03,55,4.70
2016,03,17,03,56,4.70
2016,03,17,03,57,4.70
2016,03,17,03,58,4.70
2016,03,17,03,59,4.70
2016,03,17,04,00,4.70
2016,03,17,04,01,4.70
2016,03,17,04,02,4.70
2016,03,17,04,03,4.70
2016,03,17,04,04,4.70
2016,03,17,04,05,4.70
2016,03,17,04,06,4.70
2016,03,17,04,07,4.80
2016,03,17,04,08,4.80
2016,03,17,04,09,4.80
2016,03,17,04,10,4.80
2016,03,17,04,11,4.80
2016,03,17,04,12,4.80
2016,03,17,04,13,4.80
2016,03,17,04,14,4.80
2016,03,17,04,15,4.80
2016,03,17,04,16,4.80
2016,03,17,04,17,4.80
2016,03,17,04,18,4.80
2016,03,17,04,19,4.80
2016,03,17,04,20,4.80
2016,03,17,04,21,4.90
2016,03,17,04,22,4.90
2016,03,17,04,23,4.90
2016,03,17,04,24,5.00
2016,03,17,04,25,5.00
2016,03,17,04,26,5.10
2016,03,17,04,27,5.10
2016,03,17,04,28,5.10
2016,03,17,04,29,5.10
2016,03,17,04,30,5.10
2016,03,17,04,31,5.20
2016,03,17,04,32,5.20
2016,03,17,04,33,5.20
2016,03,17,04,34,5.20
2016,03,17,04,35,5.20
2016,03,17,04,36,5.20
2016,03,17,04,37,5.20
2016,03,17,04,38,5.20
2016,03,17,04,39,5.20
2016,03,17,04,40,5.20
2016,03,17,04,41,5.20
2016,03,17,04,42,5.20
2016,03,17,04,43,5.20
2016,03,17,04,44,5.20
2016,03,17,04,45,5.20
2016,03,17,04,46,5.20
2016,03,17,04,47,5.20
2016,03,17,04,48,5.20
2016,03,17,04,49,5.20
2016,03,17,04,50,5.20
2016,03,17,04,51,5.20
2016,03,17,04,52,5.20
2016,03,17,04,53,5.20
2016,03,17,04,54,5.20
2016,03,17,04,55,5.20
2016,03,17,04,56,5.20
2016,03,17,04,57,5.20
2016,03,17,04,58,5.20
2016,03,17,04,59,5.20
2016,03,17,05,00,5.20
2016,03,17,05,01,5.20
2016,03,17,05,02,5.20
2016,03,17,05,03,5.20
2016,03,17,05,04,5.20
2016,03,17,05,05,5.30
2016,03,17,05,06,5.30
2016,03,17,05,07,5.30
2016,03,17,05,08,5.30
2016,03,17,05,09,5.30
2016,03,17,05,10,5.30
2016,03,17,05,11,5.30
2016,03,17,05,12,5.30
2016,03,17,05,13,5.30
2016,03,17,05,14,5.30
2016,03,17,05,15,5.30
2016,03,17,05,16,5.30
2016,03,17,05,17,5.30
2016,03,17,05,18,5.30
2016,03,17,05,19,5.30
2016,03,17,05,20,5.30
2016,03,17,05,21,5.30
2016,03,17,05,22,5.20
2016,03,17,05,23,5.20
2016,03,17,05,24,5.20
2016,03,17,05,25,5.20
2016,03,17,05,26,5.20
2016,03,17,05,27,5.20
2016,03,17,05,28,5.20
2016,03,17,05,29,5.20
2016,03,17,05,30,5.20
2016,03,17,05,31,5.20
2016,03,17,05,32,5.20
2016,03,17,05,33,5.10
2016,03,17,05,34,5.10
2016,03,17,05,35,5.10
2016,03,17,05,36,5.10
2016,03,17,05,37,5.10
2016,03,17,05,38,5.10
2016,03,17,05,39,5.10
2016,03,17,05,40,5.10
2016,03,17,05,41,5.00
2016,03,17,05,42,5.00
2016,03,17,05,43,5.00
2016,03,17,05,44,4.90
2016,03,17,05,45,4.90
2016,03,17,05,46,4.90
2016,03,17,05,47,4.90
2016,03,17,05,48,4.90
2016,03,17,05,49,4.90
2016,03,17,05,50,4.90
2016,03,17,05,51,4.80
2016,03,17,05,52,4.80
2016,03,17,05,53,4.80
2016,03,17,05,54,4.80
2016,03,17,05,55,4.80
2016,03,17,05,56,4.80
2016,03,17,05,57,4.80
2016,03,17,05,58,4.80
2016,03,17,05,59,4.80
2016,03,17,06,00,4.80
2016,03,17,06,01,4.80
2016,03,17,06,02,4.80
2016,03,17,06,03,4.80
2016,03,17,06,04,4.80
2016,03,17,06,05,4.90
2016,03,17,06,06,4.90
2016,03,17,06,07,4.90
2016,03,17,06,08,4.90
2016,03,17,06,09,4.90
2016,03,17,06,10,4.90
2016,03,17,06,11,4.90
2016,03,17,06,12,4.90
2016,03,17,06,13,4.90
2016,03,17,06,14,4.90
2016,03,17,06,15,4.90
2016,03,17,06,16,4.90
2016,03,17,06,17,4.90
2016,03,17,06,18,4.90
2016,03,17,06,19,4.90
2016,03,17,06,20,4.90
2016,03,17,06,21,4.90
2016,03,17,06,22,4.90
2016,03,17,06,23,4.90
2016,03,17,06,24,4.90
2016,03,17,06,25,4.90
2016,03,17,06,26,4.90
2016,03,17,06,27,4.90
2016,03,17,06,28,4.80
2016,03,17,06,29,4.80
2016,03,17,06,30,4.80
2016,03,17,06,31,4.80
2016,03,17,06,32,4.80
2016,03,17,06,33,4.80
2016,03,17,06,34,4.80
2016,03,17,06,35,4.80
2016,03,17,06,36,4.80
2016,03,17,06,37,4.80
2016,03,17,06,38,4.80
2016,03,17,06,39,4.70
2016,03,17,06,40,4.70
2016,03,17,06,41,4.70
2016,03,17,06,42,4.70
2016,03,17,06,43,4.70
2016,03,17,06,44,4.70
2016,03,17,06,45,4.70
2016,03,17,06,46,4.70
2016,03,17,06,47,4.60
2016,03,17,06,48,4.60
2016,03,17,06,49,4.60
2016,03,17,06,50,4.60
2016,03,17,06,51,4.60
2016,03,17,06,52,4.60
2016,03,17,06,53,4.60
2016,03,17,06,54,4.60
2016,03,17,06,55,4.50
2016,03,17,06,56,4.50
2016,03,17,06,57,4.50
2016,03,17,06,58,4.40
2016,03,17,06,59,4.40
2016,03,17,07,00,4.40
2016,03,17,07,01,4.40
2016,03,17,07,02,4.40
2016,03,17,07,03,4.40
2016,03,17,07,04,4.40
2016,03,17,07,05,4.40
2016,03,17,07,06,4.40
2016,03,17,07,07,4.40
2016,03,17,07,08,4.40
2016,03,17,07,09,4.40
2016,03,17,07,10,4.30
2016,03,17,07,11,4.30
2016,03,17,07,12,4.30
2016,03,17,07,13,4.30
2016,03,17,07,14,4.30
2016,03,17,07,15,4.30
2016,03,17,07,16,4.30
2016,03,17,07,17,4.40
2016,03,17,07,18,4.40
2016,03,17,07,19,4.40
2016,03,17,07,20,4.40
2016,03,17,07,21,4.40
2016,03,17,07,22,4.40
2016,03,17,07,23,4.40
2016,03,17,07,24,4.40
2016,03,17,07,25,4.40
2016,03,17,07,26,4.50
2016,03,17,07,27,4.50
2016,03,17,07,28,4.50
2016,03,17,07,29,4.50
2016,03,17,07,30,4.60
2016,03,17,07,31,4.60
2016,03,17,07,32,4.60
2016,03,17,07,33,4.60
2016,03,17,07,34,4.60
2016,03,17,07,35,4.60
2016,03,17,07,36,4.70
2016,03,17,07,37,4.70
2016,03,17,07,38,4.70
2016,03,17,07,39,4.70
2016,03,17,07,40,4.70
2016,03,17,07,41,4.80
2016,03,17,07,42,4.80
2016,03,17,07,43,4.80
2016,03,17,07,44,4.90
2016,03,17,07,45,4.90
2016,03,17,07,46,4.90
2016,03,17,07,47,5.00
2016,03,17,07,48,5.00
2016,03,17,07,49,5.00
2016,03,17,07,50,5.10
2016,03,17,07,51,5.10
2016,03,17,07,52,5.10
2016,03,17,07,53,5.10
2016,03,17,07,54,5.20
2016,03,17,07,55,5.20
2016,03,17,07,56,5.20
2016,03,17,07,57,5.20
2016,03,17,07,58,5.30
2016,03,17,07,59,5.30
2016,03,17,08,00,5.30
2016,03,17,08,01,5.30
2016,03,17,08,02,5.40
2016,03,17,08,03,5.30
2016,03,17,08,04,5.40
2016,03,17,08,05,5.40
2016,03,17,08,06,5.40
2016,03,17,08,07,5.40
2016,03,17,08,08,5.50
2016,03,17,08,09,5.50
2016,03,17,08,10,5.50
2016,03,17,08,11,5.60
2016,03,17,08,12,5.60
2016,03,17,08,13,5.70
2016,03,17,08,14,5.70
2016,03,17,08,15,5.70
2016,03,17,08,16,5.80
2016,03,17,08,17,5.80
2016,03,17,08,18,5.80
2016,03,17,08,19,5.80
2016,03,17,08,20,5.90
2016,03,17,08,21,5.90
2016,03,17,08,22,5.90
2016,03,17,08,23,5.90
2016,03,17,08,24,5.90
2016,03,17,08,25,6.00
2016,03,17,08,26,6.00
2016,03,17,08,27,6.00
2016,03,17,08,28,6.10
2016,03,17,08,29,6.10
2016,03,17,08,30,6.10
2016,03,17,08,31,6.10
2016,03,17,08,32,6.10
2016,03,17,08,33,6.20
2016,03,17,08,34,6.20
2016,03,17,08,35,6.20
2016,03,17,08,36,6.20
2016,03,17,08,37,6.30
2016,03,17,08,38,6.30
2016,03,17,08,39,6.30
2016,03,17,08,40,6.30
2016,03,17,08,41,6.40
2016,03,17,08,42,6.40
2016,03,17,08,43,6.40
2016,03,17,08,44,6.40
2016,03,17,08,45,6.40
2016,03,17,08,46,6.50
2016,03,17,08,47,6.50
2016,03,17,08,48,6.50
2016,03,17,08,49,6.60
2016,03,17,08,50,6.60
2016,03,17,08,51,6.60
2016,03,17,08,52,6.60
2016,03,17,08,53,6.60
2016,03,17,08,54,6.70
2016,03,17,08,55,6.70
2016,03,17,08,56,6.70
2016,03,17,08,57,6.70
2016,03,17,08,58,6.70
2016,03,17,08,59,6.70
2016,03,17,09,00,6.70
2016,03,17,09,01,6.70
2016,03,17,09,02,6.70
2016,03,17,09,03,6.70
2016,03,17,09,04,6.70
2016,03,17,09,05,6.70
2016,03,17,09,06,6.80
2016,03,17,09,07,6.80
2016,03,17,09,08,6.90
2016,03,17,09,09,6.90
2016,03,17,09,10,6.90
2016,03,17,09,11,6.90
2016,03,17,09,12,6.90
2016,03,17,09,13,6.90
2016,03,17,09,14,6.90
2016,03,17,09,15,6.90
2016,03,17,09,16,6.90
2016,03,17,09,17,6.90
2016,03,17,09,18,7.00
2016,03,17,09,19,7.00
2016,03,17,09,20,7.10
2016,03,17,09,21,7.10
2016,03,17,09,22,7.10
2016,03,17,09,23,7.20
2016,03,17,09,24,7.20
2016,03,17,09,25,7.30
2016,03,17,09,26,7.30
2016,03,17,09,27,7.30
2016,03,17,09,28,7.30
2016,03,17,09,29,7.40
2016,03,17,09,30,7.40
2016,03,17,09,31,7.40
2016,03,17,09,32,7.40
2016,03,17,09,33,7.50
2016,03,17,09,34,7.50
2016,03,17,09,35,7.50
2016,03,17,09,36,7.50
2016,03,17,09,37,7.50
2016,03,17,09,38,7.50
2016,03,17,09,39,7.50
2016,03,17,09,40,7.50
2016,03,17,09,41,7.40
2016,03,17,09,42,7.40
2016,03,17,09,43,7.40
2016,03,17,09,44,7.50
2016,03,17,09,45,7.50
2016,03,17,09,46,7.60
2016,03,17,09,47,7.60
2016,03,17,09,48,7.70
2016,03,17,09,49,7.70
2016,03,17,09,50,7.70
2016,03,17,09,51,7.70
2016,03,17,09,52,7.70
2016,03,17,09,53,7.80
2016,03,17,09,54,7.80
2016,03,17,09,55,7.80
2016,03,17,09,56,7.80
2016,03,17,09,57,7.80
2016,03,17,09,58,7.80
2016,03,17,09,59,7.80
2016,03,17,10,00,7.80
2016,03,17,10,01,7.80
2016,03,17,10,02,7.80
2016,03,17,10,03,7.80
2016,03,17,10,04,7.80
2016,03,17,10,05,7.80
2016,03,17,10,06,7.90
2016,03,17,10,07,7.90
2016,03,17,10,08,8.00
2016,03,17,10,09,8.00
2016,03,17,10,10,8.10
2016,03,17,10,11,8.10
2016,03,17,10,12,8.10
2016,03,17,10,13,8.20
2016,03,17,10,14,8.20
2016,03,17,10,15,8.20
2016,03,17,10,16,8.20
2016,03,17,10,17,8.10
2016,03,17,10,18,8.10
2016,03,17,10,19,8.10
2016,03,17,10,20,8.10
2016,03,17,10,21,8.10
2016,03,17,10,22,8.00
2016,03,17,10,23,8.00
2016,03,17,10,24,8.00
2016,03,17,10,25,8.10
2016,03,17,10,26,8.10
2016,03,17,10,27,8.10
2016,03,17,10,28,8.20
2016,03,17,10,29,8.20
2016,03,17,10,30,8.20
2016,03,17,10,31,8.30
2016,03,17,10,32,8.30
2016,03,17,10,33,8.30
2016,03,17,10,34,8.30
2016,03,17,10,35,8.30
2016,03,17,10,36,8.30
2016,03,17,10,37,8.30
2016,03,17,10,38,8.30
2016,03,17,10,39,8.40
2016,03,17,10,40,8.40
2016,03,17,10,41,8.40
2016,03,17,10,42,8.40
2016,03,17,10,43,8.40
2016,03,17,10,44,8.40
2016,03,17,10,45,8.40
2016,03,17,10,46,8.40
2016,03,17,10,47,8.40
2016,03,17,10,48,8.40
2016,03,17,10,49,8.40
2016,03,17,10,50,8.40
2016,03,17,10,51,8.40
2016,03,17,10,52,8.40
2016,03,17,10,53,8.40
2016,03,17,10,54,8.50
2016,03,17,10,55,8.50
2016,03,17,10,56,8.50
2016,03,17,10,57,8.40
2016,03,17,10,58,8.50
2016,03,17,10,59,8.50
2016,03,17,11,00,8.60
2016,03,17,11,01,8.60
2016,03,17,11,02,8.60
2016,03,17,11,03,8.70
2016,03,17,11,04,8.60
2016,03,17,11,05,8.60
2016,03,17,11,06,8.60
2016,03,17,11,07,8.60
2016,03,17,11,08,8.60
2016,03,17,11,09,8.70
2016,03,17,11,10,8.70
2016,03,17,11,11,8.70
2016,03,17,11,12,8.70
2016,03,17,11,13,8.70
2016,03,17,11,14,8.80
2016,03,17,11,15,8.80
2016,03,17,11,16,8.70
2016,03,17,11,17,8.70
2016,03,17,11,18,8.70
2016,03,17,11,19,8.70
2016,03,17,11,20,8.60
2016,03,17,11,21,8.70
2016,03,17,11,22,8.60
2016,03,17,11,23,8.70
2016,03,17,11,24,8.70
2016,03,17,11,25,8.70
2016,03,17,11,26,8.70
2016,03,17,11,27,8.70
2016,03,17,11,28,8.70
2016,03,17,11,29,8.70
2016,03,17,11,30,8.70
2016,03,17,11,31,8.70
2016,03,17,11,32,8.70
2016,03,17,11,33,8.70
2016,03,17,11,34,8.70
2016,03,17,11,35,8.70
2016,03,17,11,36,8.80
2016,03,17,11,37,8.80
2016,03,17,11,38,8.80
2016,03,17,11,39,8.80
2016,03,17,11,40,8.80
2016,03,17,11,41,8.70
2016,03,17,11,42,8.70
2016,03,17,11,43,8.80
2016,03,17,11,44,8.80
2016,03,17,11,45,8.80
2016,03,17,11,46,8.90
2016,03,17,11,47,9.00
2016,03,17,11,48,9.10
2016,03,17,11,49,9.20
2016,03,17,11,50,9.20
2016,03,17,11,51,9.10
2016,03,17,11,52,9.10
2016,03,17,11,53,9.10
2016,03,17,11,54,9.10
2016,03,17,11,55,9.10
2016,03,17,11,56,9.10
2016,03,17,11,57,9.10
2016,03,17,11,58,9.00
2016,03,17,11,59,8.80
2016,03,17,12,00,8.80
2016,03,17,12,01,8.70
2016,03,17,12,02,8.70
2016,03,17,12,03,8.70
2016,03,17,12,04,8.80
2016,03,17,12,05,8.80
2016,03,17,12,06,8.70
2016,03,17,12,07,8.70
2016,03,17,12,08,8.70
2016,03,17,12,09,8.70
2016,03,17,12,10,8.70
2016,03,17,12,11,8.70
2016,03,17,12,12,8.70
2016,03,17,12,13,8.70
2016,03,17,12,14,8.70
2016,03,17,12,15,8.70
2016,03,17,12,16,8.70
2016,03,17,12,17,8.70
2016,03,17,12,18,8.80
2016,03,17,12,19,8.80
2016,03,17,12,20,8.80
2016,03,17,12,21,8.90
2016,03,17,12,22,8.90
2016,03,17,12,23,8.90
2016,03,17,12,24,8.90
2016,03,17,12,25,8.90
2016,03,17,12,26,9.00
2016,03,17,12,27,9.00
2016,03,17,12,28,9.10
2016,03,17,12,29,9.20
2016,03,17,12,30,9.20
2016,03,17,12,31,9.20
2016,03,17,12,32,9.30
2016,03,17,12,33,9.30
2016,03,17,12,34,9.30
2016,03,17,12,35,9.30
2016,03,17,12,36,9.30
2016,03,17,12,37,9.40
2016,03,17,12,38,9.40
2016,03,17,12,39,9.30
2016,03,17,12,40,9.40
2016,03,17,12,41,9.40
2016,03,17,12,42,9.40
2016,03,17,12,43,9.50
2016,03,17,12,44,9.50
2016,03,17,12,45,9.60
2016,03,17,12,46,9.60
2016,03,17,12,47,9.60
2016,03,17,12,48,9.60
2016,03,17,12,49,9.60
2016,03,17,12,50,9.60
2016,03,17,12,51,9.60
2016,03,17,12,52,9.60
2016,03,17,12,53,9.60
2016,03,17,12,54,9.60
2016,03,17,12,55,9.60
2016,03,17,12,56,9.60
2016,03,17,12,57,9.60
2016,03,17,12,58,9.70
2016,03,17,12,59,9.70
2016,03,17,13,00,9.70
2016,03,17,13,01,9.70
2016,03,17,13,02,9.80
2016,03,17,13,03,9.80
2016,03,17,13,04,9.90
2016,03,17,13,05,9.90
2016,03,17,13,06,9.90
2016,03,17,13,07,9.90
2016,03,17,13,08,9.90
2016,03,17,13,09,9.90
2016,03,17,13,10,9.80
2016,03,17,13,11,9.90
2016,03,17,13,12,9.90
2016,03,17,13,13,9.90
2016,03,17,13,14,10.00
2016,03,17,13,15,10.10
2016,03,17,13,16,10.10
2016,03,17,13,17,10.10
2016,03,17,13,18,10.10
2016,03,17,13,19,10.10
2016,03,17,13,20,10.10
2016,03,17,13,21,10.00
2016,03,17,13,22,10.00
2016,03,17,13,23,10.10
2016,03,17,13,24,10.10
2016,03,17,13,25,10.10
2016,03,17,13,26,10.20
2016,03,17,13,27,10.20
2016,03,17,13,28,10.30
2016,03,17,13,29,10.40
2016,03,17,13,30,10.40
2016,03,17,13,31,10.50
2016,03,17,13,32,10.50
2016,03,17,13,33,10.40
2016,03,17,13,34,10.30
2016,03,17,13,35,10.20
2016,03,17,13,36,10.20
2016,03,17,13,37,10.20
2016,03,17,13,38,10.20
2016,03,17,13,39,10.20
2016,03,17,13,40,10.20
2016,03,17,13,41,10.30
2016,03,17,13,42,10.30
2016,03,17,13,43,10.40
2016,03,17,13,44,10.40
2016,03,17,13,45,10.50
2016,03,17,13,46,10.50
2016,03,17,13,47,10.50
2016,03,17,13,48,10.50
2016,03,17,13,49,10.40
2016,03,17,13,50,10.50
2016,03,17,13,51,10.50
2016,03,17,13,52,10.60
2016,03,17,13,53,10.60
2016,03,17,13,54,10.60
2016,03,17,13,55,10.70
2016,03,17,13,56,10.80
2016,03,17,13,57,10.80
2016,03,17,13,58,10.70
2016,03,17,13,59,10.70
2016,03,17,14,00,10.70
2016,03,17,14,01,10.70
2016,03,17,14,02,10.70
2016,03,17,14,03,10.70
2016,03,17,14,04,10.70
2016,03,17,14,05,10.70
2016,03,17,14,06,10.70
2016,03,17,14,07,10.70
2016,03,17,14,08,10.70
2016,03,17,14,09,10.70
2016,03,17,14,10,10.80
2016,03,17,14,11,10.80
2016,03,17,14,12,10.80
2016,03,17,14,13,10.80
2016,03,17,14,14,10.80
2016,03,17,14,15,10.80
2016,03,17,14,16,10.70
2016,03,17,14,17,10.80
2016,03,17,14,18,10.90
2016,03,17,14,19,10.90
2016,03,17,14,20,10.90
2016,03,17,14,21,10.90
2016,03,17,14,22,10.80
2016,03,17,14,23,10.70
2016,03,17,14,24,10.70
2016,03,17,14,25,10.70
2016,03,17,14,26,10.60
2016,03,17,14,27,10.60
2016,03,17,14,28,10.60
2016,03,17,14,29,10.60
2016,03,17,14,30,10.60
2016,03,17,14,31,10.70
2016,03,17,14,32,10.80
2016,03,17,14,33,10.80
2016,03,17,14,34,10.80
2016,03,17,14,35,10.80
2016,03,17,14,36,10.90
2016,03,17,14,37,11.00
2016,03,17,14,38,11.10
2016,03,17,14,39,11.10
2016,03,17,14,40,11.10
2016,03,17,14,41,11.10
2016,03,17,14,42,11.10
2016,03,17,14,43,11.10
2016,03,17,14,44,11.20
2016,03,17,14,45,11.20
2016,03,17,14,46,11.20
2016,03,17,14,47,11.10
2016,03,17,14,48,11.10
2016,03,17,14,49,11.20
2016,03,17,14,50,11.20
2016,03,17,14,51,11.10
2016,03,17,14,52,11.10
2016,03,17,14,53,11.00
2016,03,17,14,54,11.00
2016,03,17,14,55,10.90
2016,03,17,14,56,10.90
2016,03,17,14,57,10.90
2016,03,17,14,58,10.90
2016,03,17,14,59,10.90
2016,03,17,15,00,11.00
2016,03,17,15,01,11.00
2016,03,17,15,02,11.00
2016,03,17,15,03,11.00
2016,03,17,15,04,11.00
2016,03,17,15,05,11.00
2016,03,17,15,06,11.10
2016,03,17,15,07,11.10
2016,03,17,15,08,11.20
2016,03,17,15,09,11.20
2016,03,17,15,10,11.20
2016,03,17,15,11,11.20
2016,03,17,15,12,11.20
2016,03,17,15,13,11.30
2016,03,17,15,14,11.30
2016,03,17,15,15,11.30
2016,03,17,15,16,11.30
2016,03,17,15,17,11.30
2016,03,17,15,18,11.30
2016,03,17,15,19,11.30
2016,03,17,15,20,11.30
2016,03,17,15,21,11.30
2016,03,17,15,22,11.30
2016,03,17,15,23,11.30
2016,03,17,15,24,11.30
2016,03,17,15,25,11.30
2016,03,17,15,26,11.30
2016,03,17,15,27,11.30
2016,03,17,15,28,11.30
2016,03,17,15,29,11.30
2016,03,17,15,30,11.30
2016,03,17,15,31,11.30
2016,03,17,15,32,11.30
2016,03,17,15,33,11.30
2016,03,17,15,34,11.30
2016,03,17,15,35,11.30
2016,03,17,15,36,11.30
2016,03,17,15,37,11.40
2016,03,17,15,38,11.40
2016,03,17,15,39,11.40
2016,03,17,15,40,11.40
2016,03,17,15,41,11.50
2016,03,17,15,42,11.40
2016,03,17,15,43,11.40
2016,03,17,15,44,11.40
2016,03,17,15,45,11.40
2016,03,17,15,46,11.40
2016,03,17,15,47,11.50
2016,03,17,15,48,11.50
2016,03,17,15,49,11.50
2016,03,17,15,50,11.50
2016,03,17,15,51,11.50
2016,03,17,15,52,11.40
2016,03,17,15,53,11.40
2016,03,17,15,54,11.30
2016,03,17,15,55,11.30
2016,03,17,15,56,11.30
2016,03,17,15,57,11.40
2016,03,17,15,58,11.40
2016,03,17,15,59,11.50
2016,03,17,16,00,11.50
2016,03,17,16,01,11.40
2016,03,17,16,02,11.40
2016,03,17,16,03,11.40
2016,03,17,16,04,11.40
2016,03,17,16,05,11.40
2016,03,17,16,06,11.50
2016,03,17,16,07,11.50
2016,03,17,16,08,11.40
2016,03,17,16,09,11.40
2016,03,17,16,10,11.40
2016,03,17,16,11,11.30
2016,03,17,16,12,11.30
2016,03,17,16,13,11.30
2016,03,17,16,14,11.30
2016,03,17,16,15,11.30
2016,03,17,16,16,11.30
2016,03,17,16,17,11.30
2016,03,17,16,18,11.30
2016,03,17,16,19,11.40
2016,03,17,16,20,11.30
2016,03,17,16,21,11.30
2016,03,17,16,22,11.20
2016,03,17,16,23,11.30
2016,03,17,16,24,11.30
2016,03,17,16,25,11.30
2016,03,17,16,26,11.30
2016,03,17,16,27,11.30
2016,03,17,16,28,11.30
2016,03,17,16,29,11.30
2016,03,17,16,30,11.30
2016,03,17,16,31,11.30
2016,03,17,16,32,11.30
2016,03,17,16,33,11.40
2016,03,17,16,34,11.40
2016,03,17,16,35,11.40
2016,03,17,16,36,11.40
2016,03,17,16,37,11.40
2016,03,17,16,38,11.40
2016,03,17,16,39,11.50
2016,03,17,16,40,11.50
2016,03,17,16,41,11.60
2016,03,17,16,42,11.50
2016,03,17,16,43,11.60
2016,03,17,16,44,11.60
2016,03,17,16,45,11.60
2016,03,17,16,46,11.60
2016,03,17,16,47,11.60
2016,03,17,16,48,11.60
2016,03,17,16,49,11.50
2016,03,17,16,50,11.40
2016,03,17,16,51,11.40
2016,03,17,16,52,11.40
2016,03,17,16,53,11.40
2016,03,17,16,54,11.40
2016,03,17,16,55,11.50
2016,03,17,16,56,11.50
2016,03,17,16,57,11.60
2016,03,17,16,58,11.60
2016,03,17,16,59,11.60
2016,03,17,17,00,11.50
2016,03,17,17,01,11.40
2016,03,17,17,02,11.40
2016,03,17,17,03,11.40
2016,03,17,17,04,11.40
2016,03,17,17,05,11.40
2016,03,17,17,06,11.50
2016,03,17,17,07,11.40
2016,03,17,17,08,11.50
2016,03,17,17,09,11.50
2016,03,17,17,10,11.60
2016,03,17,17,11,11.60
2016,03,17,17,12,11.60
2016,03,17,17,13,11.60
2016,03,17,17,14,11.60
2016,03,17,17,15,11.70
2016,03,17,17,16,11.70
2016,03,17,17,17,11.60
2016,03,17,17,18,11.70
2016,03,17,17,19,11.70
2016,03,17,17,20,11.70
2016,03,17,17,21,11.70
2016,03,17,17,22,11.70
2016,03,17,17,23,11.70
2016,03,17,17,24,11.70
2016,03,17,17,25,11.70
2016,03,17,17,26,11.70
2016,03,17,17,27,11.60
2016,03,17,17,28,11.60
2016,03,17,17,29,11.60
2016,03,17,17,30,11.50
2016,03,17,17,31,11.50
2016,03,17,17,32,11.50
2016,03,17,17,33,11.60
2016,03,17,17,34,11.60
2016,03,17,17,35,11.60
2016,03,17,17,36,11.60
2016,03,17,17,37,11.70
2016,03,17,17,38,11.60
2016,03,17,17,39,11.60
2016,03,17,17,40,11.60
2016,03,17,17,41,11.60
2016,03,17,17,42,11.60
2016,03,17,17,43,11.60
2016,03,17,17,44,11.60
2016,03,17,17,45,11.60
2016,03,17,17,46,11.50
2016,03,17,17,47,11.50
2016,03,17,17,48,11.50
2016,03,17,17,49,11.50
2016,03,17,17,50,11.50
2016,03,17,17,51,11.50
2016,03,17,17,52,11.40
2016,03,17,17,53,11.40